sat.trackr.live / text

‹ back to catalog

STARLINK-33985

NORAD 63943 · 2025-098T

PAYLOAD ACTIVE UNKNOWN

§ Identity

Operator
Country
US
Launch date
2025-05-13
Launch site
AFWTR
Launch vehicle
Mass (kg)
RCS (m²)

Purposes: comms

External: N2YO · Heavens-Above · Gunter

§ Orbital elements

Epoch: 2026-09-20T09:28:49.253664Z

Period
94.14 min
Inclination
70.0002°
Eccentricity
0.0001115
Mean motion
15.29589030 rev/d
Perigee alt
476.3 km
Apogee alt
477.8 km
Semi-major
6,855.2 km
B*
1.4355e-4
RAAN
141.2833°
Arg perigee
276.3674°
Mean anomaly
83.7374°
Rev number
7,577

§ Raw data

STARLINK-339851 63943U 25098T   26263.39501451  .00004002  00000+0  14355-3 0  99922 63943  70.0002 141.2833 0001115 276.3674  83.7374 15.29589030 75771

JSON: /api/v1/satellites/63943 · /tle

For live sub-satellite position, see the globe view (requires WebGL).

§ Visibility from observer

Set your observer location to see the next 7 days of passes ≥ 10°. The values pass through the URL so the page stays shareable.

No JS? Fill the form by hand. The geolocation button needs JavaScript.